Showing default

QIANFAN-158, 69117

Orbit data source: Space-Track

QIANFAN-158, 69117 is a Chinese payload satellite in LEO that was launched on Sun, 17 May 2026 UTC via a CHANG ZHENG 8 launch vehicle from the Wenchang Satellite Launch Center (WSC). Payload-class satellites include a variety of spacecraft equipped with specific instruments for various scientific and technological missions. These include communications satellites like Starlink; space stations such as the ISS; scientific satellites like the Hubble; Earth observation satellites from companies like Planet Labs, Umbra, and HawkEye 360; GPS; miniature CubeSats for education and research; and military/defense satellites.

Loading next visibility...
Identifier
69117, 2026-108P
Orbit
LEO
Country
Flag of CNCN / PRC
Related business
Manufacturer
SECM
Mission
Operational spacecraft
Bus & Motor
QIANFAN, Unknown motor
Mass
267 kg wet, ~267 kg dry
Launch date (UTC)
2026-05-17 (1 month ago)
Launch vehicle
CHANG ZHENG 8
Launch site
Wenchang Satellite Launch Center (WSC)
Object type
Payload
Rocket body
Debris
Shape & HBR
Unknown shape, 14.5 m
Radar Cross Section
Large (>1 m²)

Expand to show TLE details & history
Last TLE update: 11 hours ago

TLE from 11 hours ago
0 QIANFAN-158
1 69117U 26108P   26171.40522785 -.00000035  00000-0 -29728-4 0  9993
2 69117  89.0107  21.8476 0017358  99.2170 261.0976 14.06065312  4802
Epoch: 2026-06-20T09:43Z
TLE epoch observation values (Epoch: 2026-06-20T09:43:31.686Z)
Latitude
-0.00006°
Longitude
-32.65475°
Altitude
877.87 km
Speed
7.412 km/s
True Right ascension
01h 27m 23s
True Declination
0° 00' 00"
Sunlit
Object was in daylight at epoch
Visualization orbit readout
Latitude
Unknown
Longitude
Unknown
Altitude
Unknown
Speed
Unknown
Apparent Right ascension
Unknown
Apparent Declination
Unknown
Sunlit
N/A
Visualization observer readout
Local Sidereal Time
07:15:09
Azimuth
Unknown
Elevation
Unknown
Doppler factor
Unknown
Orbital elements
Apogee altitude
882.42 km
Perigee altitude
857.258 km
Semi-major axis
7,247.976 km
Eccentricity
0.00174
Inclination
89.0107°
RAAN
21.8476°
Arg. of periapsis
99.217°
True anomaly
260.90115°
Mean anomaly
261.0976°
Eccentric anomaly
260.99937°
Mean motion
3.51737 °/min
Orbital period
102.35 mins
BSTAR
-0.000029728
Loading maneuver chart data...
Computing Atmospheric mass density...
Loading historical data...
Loading historical data...
Loading historical data...
Loading historical data...
Loading historical data...
Loading historical data...
Loading historical data...

Documentation

Showing up to 5 results
|